Time,TemperatureF,DewpointF,PressureIn,WindDirection,WindDirectionDegrees,WindSpeedMPH,WindSpeedGustMPH,Humidity,HourlyPrecipIn,Conditions,Clouds,dailyrainin,SoftwareType,DateUTC
2013-01-20 00:02:00,13.0,2.0,29.90,WNW,297,10.0,28.0,60,0.00,,,0.00,,2013-01-20 06:02:00,
2013-01-20 00:12:00,13.0,2.0,29.90,WNW,297,10.0,28.0,60,0.00,,,0.00,,2013-01-20 06:12:00,
2013-01-20 00:22:00,12.0,2.0,29.91,NW,313,10.0,22.0,62,0.00,,,0.00,,2013-01-20 06:22:00,
2013-01-20 00:33:00,12.0,1.0,29.93,West,274,11.0,22.0,61,0.00,,,0.00,,2013-01-20 06:33:00,
2013-01-20 00:42:00,12.0,1.0,29.93,West,274,11.0,22.0,61,0.00,,,0.00,,2013-01-20 06:42:00,
2013-01-20 00:53:00,11.0,0.0,29.95,NW,321,5.0,24.0,61,0.00,,,0.00,,2013-01-20 06:53:00,
2013-01-20 01:02:00,10.0,0.0,29.96,WNW,284,7.0,25.0,62,0.00,,,0.00,,2013-01-20 07:02:00,
2013-01-20 01:12:00,10.0,0.0,29.96,WNW,284,7.0,25.0,62,0.00,,,0.00,,2013-01-20 07:12:00,
2013-01-20 01:22:00,10.0,0.0,29.97,WNW,299,11.0,22.0,62,0.00,,,0.00,,2013-01-20 07:22:00,
2013-01-20 01:32:00,10.0,0.0,29.99,West,267,11.0,25.0,64,0.00,,,0.00,,2013-01-20 07:32:00,
2013-01-20 01:42:00,10.0,0.0,29.99,West,267,11.0,25.0,64,0.00,,,0.00,,2013-01-20 07:42:00,
2013-01-20 01:52:00,9.0,-1.0,30.01,WNW,299,8.0,25.0,63,0.00,,,0.00,,2013-01-20 07:52:00,
2013-01-20 02:02:00,9.0,-1.0,30.01,NW,307,7.0,20.0,64,0.00,,,0.00,,2013-01-20 08:02:00,
2013-01-20 02:12:00,9.0,-1.0,30.01,NW,307,7.0,20.0,64,0.00,,,0.00,,2013-01-20 08:12:00,
2013-01-20 02:22:00,8.0,-2.0,30.02,WNW,283,5.0,18.0,64,0.00,,,0.00,,2013-01-20 08:22:00,
2013-01-20 02:32:00,8.0,-1.0,30.03,NW,312,7.0,15.0,65,0.00,,,0.00,,2013-01-20 08:32:00,
2013-01-20 02:42:00,8.0,-1.0,30.03,NW,312,7.0,15.0,65,0.00,,,0.00,,2013-01-20 08:42:00,
2013-01-20 02:52:00,8.0,-2.0,30.06,NW,310,7.0,19.0,64,0.00,,,0.00,,2013-01-20 08:52:00,
2013-01-20 03:02:00,8.0,-1.0,30.06,WNW,295,7.0,21.0,65,0.00,,,0.00,,2013-01-20 09:02:00,
2013-01-20 03:12:00,8.0,-1.0,30.06,WNW,295,7.0,21.0,65,0.00,,,0.00,,2013-01-20 09:12:00,
2013-01-20 03:22:00,8.0,-1.0,30.08,WSW,254,6.0,16.0,65,0.00,,,0.00,,2013-01-20 09:22:00,
2013-01-20 03:33:00,8.0,-1.0,30.09,WNW,296,6.0,18.0,66,0.00,,,0.00,,2013-01-20 09:33:00,
2013-01-20 03:42:00,8.0,-1.0,30.09,WNW,296,6.0,18.0,66,0.00,,,0.00,,2013-01-20 09:42:00,
2013-01-20 03:53:00,7.0,-2.0,30.09,West,272,6.0,20.0,66,0.00,,,0.00,,2013-01-20 09:53:00,
2013-01-20 04:02:00,7.0,-2.0,30.09,WNW,285,4.0,16.0,67,0.00,,,0.00,,2013-01-20 10:02:00,
2013-01-20 04:12:00,7.0,-2.0,30.09,WNW,285,4.0,16.0,67,0.00,,,0.00,,2013-01-20 10:12:00,
2013-01-20 04:22:00,7.0,-2.0,30.10,WSW,243,5.0,12.0,67,0.00,,,0.00,,2013-01-20 10:22:00,
2013-01-20 04:32:00,7.0,-1.0,30.11,West,269,4.0,18.0,68,0.00,,,0.00,,2013-01-20 10:32:00,
2013-01-20 04:42:00,7.0,-1.0,30.11,West,269,4.0,18.0,68,0.00,,,0.00,,2013-01-20 10:42:00,
2013-01-20 04:52:00,6.0,-2.0,30.11,NW,310,6.0,16.0,69,0.00,,,0.00,,2013-01-20 10:52:00,
2013-01-20 05:02:00,6.0,-2.0,30.13,WNW,294,2.0,15.0,70,0.00,,,0.00,,2013-01-20 11:02:00,
2013-01-20 05:12:00,6.0,-2.0,30.13,WNW,294,2.0,15.0,70,0.00,,,0.00,,2013-01-20 11:12:00,
2013-01-20 05:22:00,6.0,-2.0,30.14,West,271,5.0,11.0,70,0.00,,,0.00,,2013-01-20 11:22:00,
2013-01-20 05:32:00,6.0,-2.0,30.15,SW,236,8.0,14.0,70,0.00,,,0.00,,2013-01-20 11:32:00,
2013-01-20 05:42:00,6.0,-2.0,30.15,SW,236,8.0,14.0,70,0.00,,,0.00,,2013-01-20 11:42:00,
2013-01-20 05:53:00,6.0,-2.0,30.15,NW,310,5.0,19.0,70,0.00,,,0.00,,2013-01-20 11:53:00,
2013-01-20 06:03:00,6.0,-2.0,30.17,WNW,303,10.0,16.0,70,0.00,,,0.00,,2013-01-20 12:03:00,
2013-01-20 06:12:00,6.0,-2.0,30.17,WNW,303,10.0,16.0,70,0.00,,,0.00,,2013-01-20 12:12:00,
2013-01-20 06:23:00,6.0,-1.0,30.18,NW,313,5.0,15.0,71,0.00,,,0.00,,2013-01-20 12:23:00,
2013-01-20 06:33:00,6.0,-1.0,30.18,WSW,255,5.0,13.0,71,0.00,,,0.00,,2013-01-20 12:33:00,
2013-01-20 06:43:00,6.0,-1.0,30.18,WSW,255,5.0,13.0,71,0.00,,,0.00,,2013-01-20 12:43:00,
2013-01-20 06:53:00,5.0,-2.0,30.18,WNW,292,6.0,16.0,71,0.00,,,0.00,,2013-01-20 12:53:00,
2013-01-20 07:02:00,5.0,-2.0,30.18,West,265,5.0,16.0,71,0.00,,,0.00,,2013-01-20 13:02:00,
2013-01-20 07:12:00,5.0,-2.0,30.18,West,265,5.0,16.0,71,0.00,,,0.00,,2013-01-20 13:12:00,
2013-01-20 07:23:00,5.0,-2.0,30.19,NW,310,3.0,16.0,71,0.00,,,0.00,,2013-01-20 13:23:00,
2013-01-20 07:33:00,5.0,-2.0,30.19,West,276,3.0,10.0,72,0.00,,,0.00,,2013-01-20 13:33:00,
2013-01-20 07:42:00,5.0,-2.0,30.19,West,276,3.0,10.0,72,0.00,,,0.00,,2013-01-20 13:42:00,
2013-01-20 07:53:00,5.0,-2.0,30.19,West,279,4.0,15.0,71,0.00,,,0.00,,2013-01-20 13:53:00,
2013-01-20 08:02:00,5.0,-2.0,30.22,SSW,212,2.0,15.0,71,0.00,,,0.00,,2013-01-20 14:02:00,
2013-01-20 08:12:00,5.0,-2.0,30.22,SSW,212,2.0,15.0,71,0.00,,,0.00,,2013-01-20 14:12:00,
2013-01-20 08:22:00,5.0,-2.0,30.22,WNW,286,5.0,9.0,72,0.00,,,0.00,,2013-01-20 14:22:00,
2013-01-20 08:32:00,5.0,-3.0,30.22,NW,304,9.0,15.0,70,0.00,,,0.00,,2013-01-20 14:32:00,
2013-01-20 08:42:00,5.0,-3.0,30.22,NW,304,9.0,15.0,70,0.00,,,0.00,,2013-01-20 14:42:00,
2013-01-20 08:53:00,6.0,-2.0,30.24,WSW,252,7.0,13.0,70,0.00,,,0.00,,2013-01-20 14:53:00,
2013-01-20 09:03:00,6.0,-2.0,30.24,NW,321,5.0,14.0,70,0.00,,,0.00,,2013-01-20 15:03:00,
2013-01-20 09:12:00,6.0,-2.0,30.24,NW,321,5.0,14.0,70,0.00,,,0.00,,2013-01-20 15:12:00,
2013-01-20 09:23:00,6.0,-2.0,30.24,West,274,1.0,15.0,70,0.00,,,0.00,,2013-01-20 15:23:00,
2013-01-20 09:33:00,6.0,-2.0,30.24,WNW,291,5.0,12.0,69,0.00,,,0.00,,2013-01-20 15:33:00,
2013-01-20 09:42:00,6.0,-2.0,30.24,WNW,291,5.0,12.0,69,0.00,,,0.00,,2013-01-20 15:42:00,
2013-01-20 09:53:00,6.0,-2.0,30.23,WNW,284,5.0,13.0,69,0.00,,,0.00,,2013-01-20 15:53:00,
2013-01-20 10:02:00,6.0,-2.0,30.24,WNW,286,4.0,11.0,70,0.00,,,0.00,,2013-01-20 16:02:00,
2013-01-20 10:12:00,6.0,-2.0,30.24,WNW,286,4.0,11.0,70,0.00,,,0.00,,2013-01-20 16:12:00,
2013-01-20 10:23:00,6.0,-2.0,30.25,WNW,300,5.0,12.0,69,0.00,,,0.00,,2013-01-20 16:23:00,
2013-01-20 10:33:00,6.0,-2.0,30.26,WNW,294,4.0,12.0,69,0.00,,,0.00,,2013-01-20 16:33:00,
2013-01-20 10:42:00,6.0,-2.0,30.26,WNW,294,4.0,12.0,69,0.00,,,0.00,,2013-01-20 16:42:00,
2013-01-20 10:53:00,7.0,-1.0,30.25,West,273,2.0,10.0,68,0.00,,,0.00,,2013-01-20 16:53:00,
2013-01-20 11:03:00,8.0,-1.0,30.26,West,269,4.0,12.0,67,0.00,,,0.00,,2013-01-20 17:03:00,
2013-01-20 11:12:00,8.0,-1.0,30.26,West,269,4.0,12.0,67,0.00,,,0.00,,2013-01-20 17:12:00,
2013-01-20 11:22:00,8.0,-2.0,30.26,WSW,242,6.0,12.0,64,0.00,,,0.00,,2013-01-20 17:22:00,
2013-01-20 11:33:00,8.0,-1.0,30.24,WNW,286,5.0,11.0,65,0.00,,,0.00,,2013-01-20 17:33:00,
2013-01-20 11:42:00,8.0,-1.0,30.24,WNW,286,5.0,11.0,65,0.00,,,0.00,,2013-01-20 17:42:00,
2013-01-20 11:53:00,8.0,-2.0,30.25,WSW,253,5.0,9.0,64,0.00,,,0.00,,2013-01-20 17:53:00,
2013-01-20 12:03:00,9.0,0.0,30.24,SW,215,5.0,12.0,65,0.00,,,0.00,,2013-01-20 18:03:00,
2013-01-20 12:12:00,9.0,-1.0,30.24,West,267,4.0,9.0,63,0.00,,,0.00,,2013-01-20 18:12:00,
2013-01-20 12:23:00,9.0,-1.0,30.24,West,267,4.0,9.0,63,0.00,,,0.00,,2013-01-20 18:23:00,
2013-01-20 12:33:00,9.0,-1.0,30.23,West,263,3.0,13.0,62,0.00,,,0.00,,2013-01-20 18:33:00,
2013-01-20 12:43:00,9.0,-1.0,30.23,West,263,3.0,13.0,62,0.00,,,0.00,,2013-01-20 18:43:00,
2013-01-20 12:53:00,9.0,-1.0,30.23,WNW,288,4.0,12.0,62,0.00,,,0.00,,2013-01-20 18:53:00,
2013-01-20 13:02:00,10.0,-1.0,30.22,WNW,302,3.0,11.0,61,0.00,,,0.00,,2013-01-20 19:02:00,
2013-01-20 13:12:00,10.0,-1.0,30.22,WNW,302,3.0,11.0,61,0.00,,,0.00,,2013-01-20 19:12:00,
2013-01-20 13:22:00,11.0,0.0,30.21,West,270,6.0,10.0,60,0.00,,,0.00,,2013-01-20 19:22:00,
2013-01-20 13:33:00,11.0,0.0,30.21,West,261,4.0,13.0,59,0.00,,,0.00,,2013-01-20 19:33:00,
2013-01-20 13:42:00,11.0,0.0,30.21,West,261,4.0,13.0,59,0.00,,,0.00,,2013-01-20 19:42:00,
2013-01-20 13:53:00,11.0,0.0,30.21,West,276,4.0,11.0,59,0.00,,,0.00,,2013-01-20 19:53:00,
2013-01-20 14:03:00,12.0,0.0,30.22,WSW,256,5.0,11.0,58,0.00,,,0.00,,2013-01-20 20:03:00,
2013-01-20 14:12:00,12.0,0.0,30.22,WSW,256,5.0,11.0,58,0.00,,,0.00,,2013-01-20 20:12:00,
2013-01-20 14:22:00,13.0,1.0,30.20,SW,234,4.0,9.0,58,0.00,,,0.00,,2013-01-20 20:22:00,
2013-01-20 14:33:00,13.0,1.0,30.20,West,277,4.0,12.0,57,0.00,,,0.00,,2013-01-20 20:33:00,
2013-01-20 14:42:00,13.0,1.0,30.20,West,277,4.0,12.0,57,0.00,,,0.00,,2013-01-20 20:42:00,
2013-01-20 14:53:00,13.0,0.0,30.21,SW,216,4.0,14.0,55,0.00,,,0.00,,2013-01-20 20:53:00,
2013-01-20 15:03:00,13.0,0.0,30.20,SW,236,4.0,13.0,55,0.00,,,0.00,,2013-01-20 21:03:00,
2013-01-20 15:13:00,13.0,0.0,30.20,SW,236,4.0,13.0,55,0.00,,,0.00,,2013-01-20 21:13:00,
2013-01-20 15:23:00,13.0,-1.0,30.20,SW,236,5.0,10.0,52,0.00,,,0.00,,2013-01-20 21:23:00,
2013-01-20 15:33:00,12.0,-2.0,30.20,NW,315,3.0,13.0,53,0.00,,,0.00,,2013-01-20 21:33:00,
2013-01-20 15:43:00,12.0,-2.0,30.20,NW,315,3.0,13.0,53,0.00,,,0.00,,2013-01-20 21:43:00,
2013-01-20 15:53:00,13.0,-1.0,30.20,West,268,2.0,11.0,53,0.00,,,0.00,,2013-01-20 21:53:00,
2013-01-20 16:03:00,13.0,0.0,30.20,West,266,2.0,7.0,54,0.00,,,0.00,,2013-01-20 22:03:00,
2013-01-20 16:12:00,13.0,0.0,30.20,West,266,2.0,7.0,54,0.00,,,0.00,,2013-01-20 22:12:00,
2013-01-20 16:22:00,12.0,-1.0,30.19,WSW,256,5.0,9.0,54,0.00,,,0.00,,2013-01-20 22:22:00,
2013-01-20 16:33:00,13.0,0.0,30.19,WSW,245,3.0,8.0,54,0.00,,,0.00,,2013-01-20 22:33:00,
2013-01-20 16:43:00,13.0,0.0,30.19,WSW,245,3.0,8.0,54,0.00,,,0.00,,2013-01-20 22:43:00,
2013-01-20 16:53:00,12.0,-1.0,30.19,West,281,3.0,9.0,54,0.00,,,0.00,,2013-01-20 22:53:00,
2013-01-20 17:03:00,12.0,-1.0,30.19,West,265,1.0,8.0,54,0.00,,,0.00,,2013-01-20 23:03:00,
2013-01-20 17:13:00,12.0,-1.0,30.19,West,265,1.0,8.0,54,0.00,,,0.00,,2013-01-20 23:13:00,
2013-01-20 17:23:00,12.0,-1.0,30.19,WNW,296,0.0,5.0,55,0.00,,,0.00,,2013-01-20 23:23:00,
2013-01-20 17:33:00,12.0,-1.0,30.19,West,273,0.0,5.0,56,0.00,,,0.00,,2013-01-20 23:33:00,
2013-01-20 17:43:00,12.0,-1.0,30.19,West,273,0.0,5.0,56,0.00,,,0.00,,2013-01-20 23:43:00,
2013-01-20 17:53:00,12.0,0.0,30.19,West,273,0.0,6.0,57,0.00,,,0.00,,2013-01-20 23:53:00,
2013-01-20 18:03:00,11.0,-1.0,30.19,WSW,237,0.0,6.0,57,0.00,,,0.00,,2013-01-21 00:03:00,
2013-01-20 18:13:00,11.0,-1.0,30.19,WSW,237,0.0,6.0,57,0.00,,,0.00,,2013-01-21 00:13:00,
2013-01-20 18:22:00,11.0,-1.0,30.19,WNW,285,0.0,5.0,58,0.00,,,0.00,,2013-01-21 00:22:00,
2013-01-20 18:33:00,11.0,0.0,30.19,West,275,1.0,5.0,59,0.00,,,0.00,,2013-01-21 00:33:00,
2013-01-20 18:43:00,11.0,0.0,30.19,West,275,1.0,5.0,59,0.00,,,0.00,,2013-01-21 00:43:00,
2013-01-20 18:53:00,11.0,0.0,30.19,West,275,0.0,4.0,60,0.00,,,0.00,,2013-01-21 00:53:00,
2013-01-20 19:03:00,10.0,-1.0,30.19,West,281,0.0,2.0,61,0.00,,,0.00,,2013-01-21 01:03:00,
2013-01-20 19:12:00,10.0,-1.0,30.19,West,281,0.0,2.0,61,0.00,,,0.00,,2013-01-21 01:12:00,
2013-01-20 19:23:00,10.0,0.0,30.19,West,266,0.0,4.0,62,0.00,,,0.00,,2013-01-21 01:23:00,
2013-01-20 19:33:00,9.0,-1.0,30.18,West,265,0.0,0.0,62,0.00,,,0.00,,2013-01-21 01:33:00,
2013-01-20 19:43:00,9.0,-1.0,30.18,West,265,0.0,0.0,62,0.00,,,0.00,,2013-01-21 01:43:00,
2013-01-20 19:53:00,9.0,-1.0,30.17,West,265,0.0,0.0,63,0.00,,,0.00,,2013-01-21 01:53:00,
2013-01-20 20:03:00,9.0,-1.0,30.17,West,269,0.0,4.0,63,0.00,,,0.00,,2013-01-21 02:03:00,
2013-01-20 20:12:00,9.0,-1.0,30.17,West,269,0.0,4.0,63,0.00,,,0.00,,2013-01-21 02:12:00,
2013-01-20 20:23:00,9.0,-1.0,30.16,SW,219,0.0,4.0,62,0.00,,,0.00,,2013-01-21 02:23:00,
2013-01-20 20:33:00,9.0,-2.0,30.17,West,277,2.0,8.0,60,0.00,,,0.00,,2013-01-21 02:33:00,
2013-01-20 20:43:00,9.0,-2.0,30.17,West,277,2.0,8.0,60,0.00,,,0.00,,2013-01-21 02:43:00,
2013-01-20 20:53:00,9.0,-2.0,30.17,WNW,282,2.0,4.0,60,0.00,,,0.00,,2013-01-21 02:53:00,
2013-01-20 21:03:00,9.0,-2.0,30.16,WSW,248,0.0,2.0,61,0.00,,,0.00,,2013-01-21 03:03:00,
2013-01-20 21:12:00,9.0,-2.0,30.16,WSW,248,0.0,2.0,61,0.00,,,0.00,,2013-01-21 03:12:00,
2013-01-20 21:23:00,9.0,-1.0,30.16,WNW,289,0.0,5.0,62,0.00,,,0.00,,2013-01-21 03:23:00,
2013-01-20 21:33:00,9.0,-2.0,30.16,West,274,2.0,5.0,61,0.00,,,0.00,,2013-01-21 03:33:00,
2013-01-20 21:43:00,9.0,-2.0,30.16,West,274,2.0,5.0,61,0.00,,,0.00,,2013-01-21 03:43:00,
2013-01-20 21:53:00,8.0,-2.0,30.16,WNW,298,3.0,7.0,62,0.00,,,0.00,,2013-01-21 03:53:00,
2013-01-20 22:03:00,8.0,-2.0,30.16,West,281,0.0,4.0,63,0.00,,,0.00,,2013-01-21 04:03:00,
2013-01-20 22:12:00,8.0,-2.0,30.16,West,281,0.0,4.0,63,0.00,,,0.00,,2013-01-21 04:12:00,
2013-01-20 22:23:00,8.0,-2.0,30.15,West,263,0.0,4.0,64,0.00,,,0.00,,2013-01-21 04:23:00,
2013-01-20 22:32:00,8.0,-2.0,30.14,NW,307,0.0,2.0,64,0.00,,,0.00,,2013-01-21 04:32:00,
2013-01-20 22:42:00,8.0,-2.0,30.14,NW,307,0.0,2.0,64,0.00,,,0.00,,2013-01-21 04:42:00,
2013-01-20 22:53:00,8.0,-1.0,30.14,West,279,0.0,5.0,65,0.00,,,0.00,,2013-01-21 04:53:00,
2013-01-20 23:03:00,8.0,-1.0,30.14,West,279,0.0,2.0,65,0.00,,,0.00,,2013-01-21 05:03:00,
2013-01-20 23:12:00,8.0,-1.0,30.14,West,279,0.0,2.0,65,0.00,,,0.00,,2013-01-21 05:12:00,
2013-01-20 23:22:00,8.0,-1.0,30.14,WNW,282,1.0,4.0,66,0.00,,,0.00,,2013-01-21 05:22:00,
2013-01-20 23:33:00,8.0,-2.0,30.13,NW,308,0.0,7.0,63,0.00,,,0.00,,2013-01-21 05:33:00,
2013-01-20 23:42:00,8.0,-2.0,30.13,NW,308,0.0,7.0,63,0.00,,,0.00,,2013-01-21 05:42:00,
2013-01-20 23:53:00,8.0,-2.0,30.13,NNW,342,1.0,9.0,63,0.00,,,0.00,,2013-01-21 05:53:00,